TimeMDT,TemperatureF,Dew PointF,Humidity,Sea Level PressureIn,VisibilityMPH,Wind Direction,Wind SpeedMPH,Gust SpeedMPH,PrecipitationIn,Events,Conditions,WindDirDegrees,DateUTC
12:53 AM,66.9,64.9,93,29.88,10.0,ESE,9.2,-,0.00,,Scattered Clouds,120,2013-07-13 06:53:00
1:53 AM,66.9,64.0,90,29.83,10.0,ENE,6.9,-,0.00,,Clear,60,2013-07-13 07:53:00
2:53 AM,66.0,64.0,93,29.83,10.0,SE,9.2,-,N/A,,Clear,140,2013-07-13 08:53:00
3:53 AM,64.9,64.0,97,29.85,10.0,Calm,Calm,-,N/A,,Clear,0,2013-07-13 09:53:00
4:53 AM,64.0,63.0,96,29.88,10.0,West,6.9,-,N/A,,Clear,280,2013-07-13 10:53:00
5:53 AM,64.0,62.1,93,29.89,7.0,Calm,Calm,-,N/A,,Clear,0,2013-07-13 11:53:00
6:53 AM,66.9,64.9,93,29.90,8.0,Calm,Calm,-,N/A,,Clear,0,2013-07-13 12:53:00
7:53 AM,71.1,64.9,81,29.91,10.0,WSW,5.8,-,N/A,,Clear,240,2013-07-13 13:53:00
8:53 AM,77.0,63.0,62,29.91,10.0,South,10.4,-,N/A,,Clear,190,2013-07-13 14:53:00
9:53 AM,79.0,64.0,60,29.91,10.0,SSE,9.2,-,N/A,,Clear,160,2013-07-13 15:53:00
10:53 AM,82.0,64.9,56,29.91,10.0,SSE,10.4,-,N/A,,Clear,160,2013-07-13 16:53:00
11:53 AM,82.0,64.9,56,29.91,10.0,SE,10.4,-,N/A,,Clear,140,2013-07-13 17:53:00
12:53 PM,84.0,64.0,51,29.90,10.0,Calm,Calm,-,N/A,,Clear,0,2013-07-13 18:53:00
1:53 PM,88.0,63.0,43,29.88,10.0,SSE,6.9,-,N/A,,Clear,160,2013-07-13 19:53:00
2:53 PM,90.0,61.0,38,29.86,10.0,ESE,8.1,-,N/A,,Clear,120,2013-07-13 20:53:00
3:53 PM,91.0,61.0,36,29.86,10.0,East,9.2,-,N/A,,Clear,100,2013-07-13 21:53:00
4:53 PM,90.0,62.1,39,29.85,10.0,SE,10.4,20.7,N/A,,Clear,130,2013-07-13 22:53:00
5:53 PM,86.0,62.1,44,29.86,10.0,SE,8.1,-,N/A,,Clear,140,2013-07-13 23:53:00
6:53 PM,84.9,62.1,46,29.87,10.0,SE,8.1,-,N/A,,Clear,140,2013-07-14 00:53:00
7:53 PM,82.0,64.0,54,29.87,10.0,SE,5.8,-,N/A,,Clear,130,2013-07-14 01:53:00
8:53 PM,78.1,66.0,66,29.87,10.0,ESE,3.5,-,N/A,,Clear,110,2013-07-14 02:53:00
9:53 PM,75.9,66.9,74,29.90,10.0,Calm,Calm,-,N/A,,Clear,0,2013-07-14 03:53:00
10:53 PM,75.9,59.0,56,29.91,10.0,West,8.1,-,N/A,,Clear,270,2013-07-14 04:53:00
11:53 PM,73.9,60.1,62,29.91,10.0,West,12.7,-,N/A,,Clear,280,2013-07-14 05:53:00